Location: Glencliff
(36.1226°N, 86.7183°W)
Time: 00:49:36
(UTC+00:00)

Daily predictions for brighter satellites

Satellite Brightness Start Highest point End
(mag) Time Altitude Azimuth Time Altitude Azimuth Time Altitude Azimuth
Unknown 3.6 00:47:59 10° NW 00:52:09 76° NE 00:56:16 10° SE
Cosmos 1777 Rocket 4.5 00:47:27 10° SSW 00:52:40 69° WNW 00:57:57 10° NNE
MONITOR-E 3.9 00:50:33 10° SSE 00:53:19 64° ENE 00:56:08 10° N
Unknown 3.6 00:49:40 10° NW 00:53:49 78° NE 00:57:56 10° SE
Delta 2 Rocket 4.2 00:50:44 10° SW 00:54:21 33° SSE 00:58:25 10° E
NOAA 11 4.2 00:49:07 10° SSE 00:54:35 79° ENE 01:00:05 10° N
SJ 16-02 3.2 00:53:38 10° ESE 00:54:35 11° E 00:55:32 10° E
Unknown 3.6 00:51:18 10° NW 00:55:27 82° NE 00:59:35 10° SE
Unknown 3.6 00:53:00 10° NW 00:57:10 84° NE 01:01:18 10° SE
Unknown 3.6 00:54:43 10° NW 00:58:52 88° SW 01:03:01 10° SE
Unknown 3.6 00:56:15 10° NW 01:00:24 89° WNW 01:04:32 10° SE
Unknown 3.7 00:58:03 10° NW 01:02:13 83° SW 01:06:21 10° SE
Cosmos 1703 Rocket 4.0 00:58:32 10° NNW 01:02:57 67° W 01:07:17 10° S
Unknown 3.6 00:59:15 10° NW 01:03:21 82° SW 01:07:26 10° SE
Unknown 3.7 00:59:40 10° NW 01:03:49 84° SW 01:07:57 10° SE
Unknown 3.7 01:01:15 10° NW 01:05:24 81° SW 01:09:31 10° SE
ADEOS Rocket 4.0 01:00:52 10° NE 01:06:20 29° E 01:12:15 10° SSE
Unknown 3.7 01:03:46 10° NW 01:07:56 80° SW 01:12:02 10° SE
Cosmos 1898 Rocket 4.3 01:03:58 10° SSE 01:08:25 28° E 01:12:52 10° NE
Meteor 1-18 Rocket 4.3 01:04:31 10° N 01:10:09 64° E 01:15:51 10° SSE
Unknown 3.8 01:06:16 10° NW 01:10:24 72° SW 01:14:28 10° SE
Unknown 3.8 01:07:57 10° NW 01:12:05 70° SW 01:16:05 11° SE
Ariane Rocket 3.7 01:07:08 10° S 01:12:06 58° W 01:17:05 10° NNW
Unknown 3.9 01:09:38 10° NW 01:13:45 66° SW 01:17:42 11° SE
Cosmos 1602 3.6 01:10:15 10° S 01:14:03 76° E 01:17:52 10° N
Unknown 3.9 01:11:18 10° NW 01:15:24 64° SW 01:19:17 11° SE
Okean 1 3.3 01:12:44 10° N 01:16:41 62° E 01:20:36 10° SSE
Unknown 4.1 01:14:39 10° NW 01:18:44 59° SW 01:22:31 12° SSE
OAO 3 Rocket 3.2 01:15:09 10° W 01:20:03 77° S 01:23:49 16° ESE
Unknown 4.1 01:16:17 10° NW 01:20:22 56° SW 01:24:07 12° SSE
CZ-2C R/B 4.4 01:18:39 14° E 01:20:45 18° ENE 01:23:56 10° NNE
Cosmos 1538 Rocket 4.2 01:15:58 10° NNW 01:21:08 74° WSW 01:26:17 10° S
Unknown 4.2 01:17:59 10° NW 01:22:02 54° SW 01:25:42 12° SSE
Cosmos 1680 Rocket 4.2 01:18:17 10° N 01:23:04 35° ENE 01:26:30 17° SE
ARGOS 3.7 01:18:36 12° SE 01:23:07 37° ENE 01:28:01 10° N
Unknown 4.2 01:19:34 10° NW 01:23:37 54° SW 01:27:12 13° SSE
Cosmos 44 Rocket 4.0 01:20:16 10° NNW 01:24:38 35° NE 01:27:26 18° ESE
H-2A R/B 2.5 01:20:37 12° SE 01:24:48 39° ENE 01:29:22 10° N
Unknown 4.3 01:21:20 10° WNW 01:25:21 50° SW 01:28:53 13° SSE
Unknown 4.2 01:22:47 10° NW 01:26:50 54° SW 01:30:13 14° SSE
Cosmos 1733 Rocket 3.0 01:25:18 10° S 01:29:31 59° E 01:33:47 10° NNE
Unknown 4.3 01:26:08 10° WNW 01:30:08 49° SW 01:33:24 15° SSE
Unknown 4.4 01:27:47 10° WNW 01:31:47 48° SW 01:35:00 15° SSE
Resurs 01 Rocket 2.7 01:30:05 20° ESE 01:31:55 26° ENE 01:35:34 10° NNE
OAO 2 Rocket 4.0 01:27:02 10° W 01:32:02 46° SSW 01:35:21 19° SE
Aureole 2 Rocket 1.7 01:30:15 10° N 01:32:52 62° ENE 01:33:55 31° SE
Shenzhou-11 Module 4.1 01:31:31 10° NW 01:33:40 20° N 01:35:46 10° NE
COSMOS 2406 3.2 01:29:32 10° SSW 01:35:12 84° ESE 01:40:56 10° NNE
OAO 3 Copernicus 4.3 01:31:00 10° WSW 01:36:01 72° S 01:39:24 21° E
Meteor 1-19 Rocket 4.2 01:31:15 10° N 01:37:02 76° E 01:42:56 10° SSE
SJ-6B 2.8 01:33:51 10° SSE 01:37:48 88° WSW 01:41:52 10° NNW
Cosmos 1674 Rocket 4.1 01:35:53 10° NNE 01:39:53 36° E 01:41:31 26° ESE
Cosmos 990 Rocket 3.9 01:41:43 10° S 01:46:51 62° ESE 01:51:59 10° NNE
Cosmos 1937 Rocket 3.6 01:45:16 10° S 01:50:22 52° ESE 01:55:32 10° NNE
Meteor 1-13 Rocket 4.5 01:46:21 10° N 01:51:54 51° ENE 01:55:01 26° SE
Cosmos 1536 3.3 01:51:34 36° ESE 01:52:13 38° E 01:56:01 10° NNE
Spot 2 Rocket 4.5 01:51:31 25° E 01:52:41 28° ENE 01:56:57 10° N
Okean 3 3.4 01:48:37 10° N 01:52:49 84° W 01:55:58 17° S
USA 186 3.2 01:51:59 13° SSW 01:53:47 27° W 01:56:06 10° NW
Cosmos 2098 Rocket 4.4 01:50:28 10° NNE 01:55:16 35° E 01:57:00 29° ESE
SL-24 R/B 4.3 01:54:21 24° SSE 01:57:13 64° E 02:02:04 10° N
Cosmos 1515 3.5 02:00:23 10° N 02:04:13 81° E 02:05:11 48° SSE
Aureole 3 Rocket 2.4 02:09:11 46° S 02:10:11 89° E 02:13:23 10° N
Meteor 2-4 Rocket 3.6 02:05:05 10° N 02:10:27 85° W 02:13:41 25° S
Cosmos 1386 Rocket 4.4 02:07:56 10° N 02:14:07 79° E 02:17:36 28° SSE
USA 234 3.3 02:13:18 35° ESE 02:16:13 68° NE 02:22:44 10° NW
Cosmos 883 Rocket 4.4 02:16:05 19° S 02:20:48 76° E 02:27:08 10° N
Cosmos 1656 3.6 02:15:33 10° NNW 02:21:11 66° ENE 02:22:27 50° SE
TSX-5 4.2 02:20:43 10° NNW 02:24:31 63° WSW 02:25:23 50° SSW
Cosmos 1833 Rocket 2.6 02:20:44 10° SSW 02:26:22 85° WNW 02:32:02 10° NNE
GP-B 3.0 02:22:25 10° N 02:26:45 70° E 02:26:45 70° E
SL-24 R/B 4.1 02:27:06 65° SSE 02:27:45 87° ENE 02:32:10 10° NNW
Cosmos 2112 Rocket 4.2 02:22:46 10° NNW 02:27:56 65° WSW 02:29:46 39° S
Cosmos 2298 Rocket 4.1 02:29:21 55° E 02:29:21 55° E 02:34:13 10° NNE
Resurs 1-3 4.3 02:27:28 32° SSW 02:29:09 50° W 02:33:25 10° NNW
Cosmos 1908 Rocket 3.8 02:30:17 39° SSW 02:31:52 68° W 02:36:19 10° N
SJ 16-02 2.0 02:28:17 10° SSW 02:32:35 54° WNW 02:36:56 10° N
DMSP B5D2-2 4.1 02:27:53 10° N 02:33:09 82° WNW 02:36:06 27° SSW
SL-08 ROCKET BODY 4.2 02:27:31 10° N 02:33:24 86° E 02:35:06 49° S
Cosmos 2082 Rocket 2.0 02:30:23 26° SSW 02:33:38 77° ESE 02:39:18 10° NNE
Delta 2 Rocket 3.6 02:32:10 10° WSW 02:36:01 68° SW 02:36:01 68° SW
MetOp-A 4.4 02:36:29 39° SSW 02:38:22 64° WSW 02:43:42 10° NNW
Meteor 2-8 Rocket 4.4 02:42:05 58° E 02:42:05 58° E 02:47:59 10° NNE
Terra 4.0 02:45:39 14° NE 02:45:39 14° NE 02:46:55 10° NNE
Cosmos 2278 4.0 02:39:36 10° NNW 02:44:59 52° ENE 02:44:59 52° ENE
Cosmos 1697 Rocket 2.7 02:40:55 10° NNW 02:46:33 63° ENE 02:46:33 63° ENE
CZ-2C R/B 2.5 02:43:33 10° NNE 02:48:41 76° ENE 02:48:41 76° ENE
SL-16 R/B 4.4 02:48:40 10° NNE 02:50:14 12° NE 02:50:14 12° NE
Cosmos 1900 4.5 02:46:31 10° NNW 02:50:56 66° N 02:50:56 66° N
ADEOS Rocket 4.3 02:46:00 10° N 02:51:49 42° WNW 02:58:13 10° SW
Cosmos 1709 Rocket 3.9 02:48:34 10° N 02:54:44 83° W 02:55:46 64° S
ERS-1 Rocket 3.9 02:58:47 37° NNE 02:58:47 37° NNE 03:02:12 10° N
Cosmos 1066 Rocket 4.2 02:52:21 10° N 02:57:00 63° NNE 02:57:00 63° NNE
CZ-2C R/B 3.8 02:59:42 38° WSW 03:00:17 40° W 03:04:47 10° NNW
H-2A R/B 4.2 03:01:15 12° SW 03:04:19 20° W 03:07:55 10° NW
Resurs 01 Rocket 3.5 03:07:39 23° WSW 03:08:18 24° W 03:11:52 10° NW
Cosmos 1980 Rocket 2.8 03:05:31 10° NNW 03:09:54 46° NNE 03:09:54 46° NNE
USA 229 DEB 3.9 03:08:18 10° NNW 03:15:34 64° NE 03:15:51 64° ENE
USA 229 3.9 03:08:24 10° NNW 03:15:40 64° NE 03:15:56 63° ENE
Cosmos 2322 Rocket 4.0 03:56:54 10° N 03:59:27 24° NNE 03:59:27 24° NNE
NOSS 3-1 (C) 4.3 03:59:45 10° NW 04:06:42 68° WNW 04:06:42 68° WNW
CZ-4C R/B 4.3 04:11:58 20° NNE 04:11:58 20° NNE 04:13:47 10° NNE
Terra 4.4 04:24:33 17° NNW 04:24:33 17° NNW 04:25:45 10° NNW
SL-16 R/B 4.1 04:29:50 10° NNW 04:32:06 25° NNW 04:32:06 25° NNW
Cosmos 2360 Rocket 4.4 04:44:27 10° N 04:46:17 20° N 04:46:17 20° N
ATLAS 2AS CENTAUR R/B 4.3 05:52:30 10° NNW 05:58:47 30° NE 05:58:47 30° NE
SL-16 R/B 4.4 06:32:59 24° NE 06:32:59 24° NE 06:36:39 10° NNE
Cosmos 2297 Rocket 4.4 06:42:41 20° NNE 06:42:41 20° NNE 06:44:23 10° NNE
CZ-2D R/B 4.2 07:05:01 10° NNE 07:07:13 24° NE 07:07:13 24° NE
SL-16 R/B 4.0 07:13:50 10° N 07:16:59 28° NNE 07:16:59 28° NNE
Cosmos 2263 Rocket 4.3 07:36:18 18° E 07:36:18 18° E 07:39:28 10° ENE
ATLAS 2AS CENTAUR R/B 4.3 07:43:10 10° NW 07:46:08 25° NW 07:46:08 25° NW
ARIANE 5 R/B 3.9 07:50:57 10° NNE 07:54:32 36° ENE 07:54:32 36° ENE
SeaSat 1 4.0 07:52:28 10° NNE 07:55:03 31° NNE 07:55:03 31° NNE
Resurs 1-4 Rocket 3.7 07:54:14 10° N 07:56:47 28° N 07:56:47 28° N
USA 215 4.4 07:54:28 10° NNE 08:00:04 31° NNW 08:00:46 30° NW
Cosmos 2227 Rocket 4.1 08:09:22 20° NNW 08:09:22 20° NNW 08:12:01 10° N
SL-16 R/B 3.8 08:18:05 27° NW 08:18:05 27° NW 08:20:59 10° NNW
Cosmos 2297 Rocket 4.3 08:24:29 15° NW 08:24:29 15° NW 08:26:49 10° NNW
USA 267 3.3 08:24:52 10° SE 08:31:23 79° NE 08:37:55 10° NW
ADEOS II 2.3 08:29:34 10° N 08:34:03 65° N 08:34:03 65° N
CZ-2D R/B 4.4 08:38:54 10° NNE 08:41:59 46° NNE 08:41:59 46° NNE
CZ-3 Stage 3 3.9 08:44:23 45° WSW 08:48:16 70° S 09:44:36 10° ESE
CZ-2D R/B 4.0 08:46:10 10° NNW 08:48:32 17° NW 08:48:32 17° NW
CZ-3 R/B 4.3 08:38:07 32° SSW 08:51:10 46° S 09:01:49 10° E
Cosmos 1603 4.0 08:49:25 10° NNW 08:55:02 66° ENE 09:00:39 10° SSE
Cosmos 2233 Rocket 3.8 08:49:41 10° N 08:55:49 77° W 08:57:12 55° SSW
Cosmos 1455 3.0 08:59:25 48° NNE 08:59:25 48° NNE 09:02:15 10° N
Cosmos 1766 Rocket 4.1 08:56:36 10° N 09:00:02 50° NNW 09:00:02 50° NNW
CZ-2C R/B 3.4 08:57:58 10° N 09:01:11 53° N 09:01:11 53° N
SL-16 R/B 4.3 08:58:14 10° NW 08:58:47 12° NW 08:58:47 12° NW
Cosmos 1408 3.9 09:01:10 10° N 09:04:32 38° E 09:05:32 31° ESE
IDEFIX/ARIANE 42P 3.7 09:03:00 10° NNE 09:07:55 40° E 09:12:07 14° SSE
Cosmos 2221 3.3 09:09:47 29° SSE 09:11:40 49° E 09:15:55 10° NNE
Cosmos 1825 3.6 09:09:07 10° N 09:12:40 37° E 09:16:11 10° SSE
RESURS DK-1 2.8 09:10:59 10° NNW 09:15:05 62° ENE 09:19:10 10° SSE
Meteor 1-28 Rocket 3.3 09:14:34 56° SE 09:15:10 69° ENE 09:18:52 10° N
SL-8 R/B 4.4 09:14:22 39° NW 09:15:14 43° NNW 09:19:51 10° NE
GPS 2-05 Rocket1 4.4 09:20:16 23° ESE 09:20:16 23° ESE 09:21:48 10° E
Cosmos 2263 Rocket 2.4 09:18:01 46° WSW 09:19:09 54° WNW 09:24:44 10° NNE
H-2A R/B 3.1 09:20:38 10° NNE 09:24:40 52° E 09:26:50 24° SSE
ATLAS CENTAUR R/B 3.2 09:21:42 17° SSE 09:24:49 34° ESE 09:29:19 10° NE
Cosmos 1842 Rocket 3.4 09:26:36 53° SW 09:27:27 68° W 09:31:49 10° N
Lacrosse 5 4.4 09:25:51 10° SSE 09:28:21 14° ESE 09:30:51 10° E
Cosmos 2285 Rocket 3.9 09:23:23 10° NNW 09:29:47 74° WSW 09:36:10 10° S
Cosmos 2084 Rocket 4.4 09:33:18 31° WNW 09:33:57 33° NW 09:38:00 10° NNE
ARIANE 5 R/B 4.0 09:30:54 10° NNW 09:34:39 20° WNW 09:34:51 20° WNW
Meteor 2-10 Rocket 3.6 09:33:57 25° SSW 09:37:19 75° W 09:43:05 10° N
Cosmos 1500 Rocket 3.5 09:34:45 10° N 09:39:05 83° E 09:43:25 10° S
Cosmos 1486 Rocket 3.9 09:35:33 10° NNW 09:40:42 63° WSW 09:45:52 10° S
Transit 2A Rocket 4.3 09:38:33 10° NNW 09:43:01 78° WSW 09:47:16 10° SSE
Cosmos 1238 Rocket 3.2 09:42:26 10° NNW 09:44:46 34° WNW 09:44:46 34° WNW
Cosmos 921 Rocket 3.2 09:55:31 27° SW 09:57:31 48° WNW 10:01:42 10° N
CRYOSAT 2 4.3 09:55:03 10° S 09:59:55 72° W 10:04:48 10° N
Cosmos 1503 Rocket 3.9 09:55:07 10° NNW 10:00:26 80° WSW 10:05:39 10° SSE
CZ-2C R/B 2.9 09:59:01 10° NNE 10:03:32 56° E 10:08:07 10° S
Meteor 2-3 Rocket 3.6 10:03:32 10° NNW 10:09:05 67° W 10:14:35 10° S
Lacrosse 5 rocket 1.2 10:07:07 22° SW 10:09:34 70° NW 10:13:41 10° NE
IRIS 4.4 10:09:16 28° WSW 10:10:12 40° SSW 10:13:24 10° SE
ADEOS 4.2 10:05:32 10° N 10:10:19 38° WNW 10:14:11 15° SW
Delta 168 4.5 10:11:15 13° SSW 10:12:48 16° S 10:15:23 10° SE
Cosmos 1869 3.2 10:10:21 10° S 10:14:16 84° W 10:18:13 10° N
USA 267 4.2 10:09:41 10° S 10:14:43 24° WSW 10:19:48 10° WNW
Cosmos 2346 Rocket 4.4 10:11:16 10° SSW 10:17:15 64° W 10:23:15 10° N
SJ-6F 4.4 10:14:23 10° N 10:18:29 78° WNW 10:22:37 10° SSW
Cosmos 1818 3.9 10:18:45 13° SW 10:23:24 50° WNW 10:28:43 10° NNE
Cosmos 1943 4.1 10:25:14 10° NW 10:29:49 26° WSW 10:34:24 10° SSW
Cosmos 1633 Rocket 3.9 10:27:55 10° N 10:32:16 55° E 10:36:35 10° SSE
Cosmos 968 Rocket 3.9 10:27:35 10° NW 10:32:22 39° WSW 10:37:11 10° S
Meteor 1-31 Rocket 2.8 10:29:39 10° N 10:33:34 66° WNW 10:37:27 10° SSW
Cosmos 1633 4.4 10:30:28 10° NNE 10:33:48 36° E 10:37:07 10° SSE
ISS -2.8 10:34:39 10° SSW 10:37:50 44° SE 10:41:02 10° ENE
Cosmos 1805 Rocket 3.8 10:33:38 10° NNW 10:37:56 49° W 10:42:14 10° SSW
Cosmos 1844 Rocket 2.9 10:35:41 10° SW 10:41:10 53° WNW 10:46:45 10° NNE
Cosmos 1151 Rocket 3.6 10:37:49 10° S 10:42:07 63° E 10:46:27 10° NNE
Cosmos 1340 Rocket 4.0 10:39:19 10° SW 10:42:40 24° WNW 10:46:02 10° NNW
Cosmos 1634 Rocket 4.1 10:36:32 10° N 10:42:49 87° E 10:49:07 10° S
IDEFIX/ARIANE 42P 3.9 10:43:14 10° NNW 10:47:13 22° WNW 10:51:12 10° WSW
Cosmos 1825 4.2 10:46:43 10° WNW 10:47:45 11° W 10:48:46 10° WSW
